Time,TemperatureF,DewpointF,PressureIn,WindDirection,WindDirectionDegrees,WindSpeedMPH,WindSpeedGustMPH,Humidity,HourlyPrecipIn,Conditions,Clouds,dailyrainin,SoftwareType,DateUTC
2013-02-13 00:04:00,47.5,41.6,30.32,South,180,2.2,3.8,80,0.00,,,0.00,pywws,2013-02-13 08:04:00,
2013-02-13 00:10:00,47.5,41.6,30.33,West,270,2.2,3.8,80,0.00,,,0.00,pywws,2013-02-13 08:10:00,
2013-02-13 00:15:00,47.3,41.1,30.34,North,0,0.7,1.6,79,0.00,,,0.00,pywws,2013-02-13 08:15:00,
2013-02-13 00:21:00,47.3,41.4,30.35,SW,225,0.7,2.2,80,0.00,,,0.00,pywws,2013-02-13 08:21:00,
2013-02-13 00:26:00,47.5,41.6,30.35,SW,225,1.6,3.1,80,0.00,,,0.00,pywws,2013-02-13 08:26:00,
2013-02-13 00:32:00,47.1,41.3,30.35,NW,315,2.2,3.1,80,0.00,,,0.00,pywws,2013-02-13 08:32:00,
2013-02-13 00:38:00,47.1,41.3,30.36,East,90,2.2,3.1,80,0.00,,,0.00,pywws,2013-02-13 08:38:00,
2013-02-13 00:43:00,47.3,41.4,30.36,North,0,0.7,2.2,80,0.00,,,0.00,pywws,2013-02-13 08:43:00,
2013-02-13 00:49:00,47.3,41.4,30.36,SE,135,0.7,1.6,80,0.00,,,0.00,pywws,2013-02-13 08:49:00,
2013-02-13 00:54:00,47.3,41.4,30.37,East,90,1.6,3.1,80,0.00,,,0.00,pywws,2013-02-13 08:54:00,
2013-02-13 01:00:00,47.1,41.3,30.37,North,-999,0.0,1.6,80,0.00,,,0.00,pywws,2013-02-13 09:00:00,
2013-02-13 01:06:00,47.8,41.6,30.37,NW,315,3.1,5.4,79,0.00,,,0.00,pywws,2013-02-13 09:06:00,
2013-02-13 01:11:00,47.5,41.3,30.37,North,-999,0.0,0.0,79,0.00,,,0.00,pywws,2013-02-13 09:11:00,
2013-02-13 01:17:00,46.8,40.9,30.37,North,-999,0.0,1.6,80,0.00,,,0.00,pywws,2013-02-13 09:17:00,
2013-02-13 01:22:00,46.4,40.9,30.37,South,180,0.7,1.6,81,0.00,,,0.00,pywws,2013-02-13 09:22:00,
2013-02-13 01:28:00,46.6,41.4,30.37,North,0,1.6,2.2,82,0.00,,,0.00,pywws,2013-02-13 09:28:00,
2013-02-13 01:34:00,46.8,41.2,30.36,South,180,2.2,7.6,81,0.00,,,0.00,pywws,2013-02-13 09:34:00,
2013-02-13 01:39:00,47.1,41.3,30.36,North,-999,0.0,0.7,80,0.00,,,0.00,pywws,2013-02-13 09:39:00,
2013-02-13 01:45:00,47.1,41.3,30.35,West,270,3.1,5.4,80,0.00,,,0.00,pywws,2013-02-13 09:45:00,
2013-02-13 01:50:00,47.1,41.3,30.35,West,270,2.2,4.5,80,0.00,,,0.00,pywws,2013-02-13 09:50:00,
2013-02-13 01:56:00,46.6,41.1,30.35,South,180,1.6,3.8,81,0.00,,,0.00,pywws,2013-02-13 09:56:00,
2013-02-13 02:02:00,46.4,41.2,30.35,SW,225,2.2,4.5,82,0.00,,,0.00,pywws,2013-02-13 10:02:00,
2013-02-13 02:07:00,45.9,41.0,30.36,South,180,2.2,4.5,83,0.00,,,0.00,pywws,2013-02-13 10:07:00,
2013-02-13 02:13:00,46.0,41.2,30.37,South,180,1.6,3.1,83,0.00,,,0.00,pywws,2013-02-13 10:13:00,
2013-02-13 02:18:00,46.2,41.3,30.37,North,0,0.7,3.1,83,0.00,,,0.00,pywws,2013-02-13 10:18:00,
2013-02-13 02:24:00,45.7,40.8,30.37,East,90,2.2,3.8,83,0.00,,,0.00,pywws,2013-02-13 10:24:00,
2013-02-13 02:30:00,45.7,41.1,30.36,South,180,1.6,2.2,84,0.00,,,0.00,pywws,2013-02-13 10:30:00,
2013-02-13 02:35:00,45.5,41.0,30.36,South,180,1.6,3.1,84,0.00,,,0.00,pywws,2013-02-13 10:35:00,
2013-02-13 02:41:00,45.7,41.4,30.36,North,0,3.8,6.0,85,0.00,,,0.00,pywws,2013-02-13 10:41:00,
2013-02-13 02:46:00,45.5,41.0,30.36,North,0,0.7,2.2,84,0.00,,,0.00,pywws,2013-02-13 10:46:00,
2013-02-13 02:52:00,45.9,41.3,30.36,North,0,4.5,7.6,84,0.00,,,0.00,pywws,2013-02-13 10:52:00,
2013-02-13 02:58:00,45.7,41.1,30.37,South,180,0.7,2.2,84,0.00,,,0.00,pywws,2013-02-13 10:58:00,
2013-02-13 03:03:00,46.0,41.5,30.37,NW,315,1.6,3.1,84,0.00,,,0.00,pywws,2013-02-13 11:03:00,
2013-02-13 03:09:00,45.7,41.1,30.37,South,180,3.8,6.0,84,0.00,,,0.00,pywws,2013-02-13 11:09:00,
2013-02-13 03:14:00,45.5,41.0,30.37,East,90,1.6,2.2,84,0.00,,,0.00,pywws,2013-02-13 11:14:00,
2013-02-13 03:20:00,45.7,41.1,30.37,West,270,3.8,5.4,84,0.01,,,0.01,pywws,2013-02-13 11:20:00,
2013-02-13 03:26:00,45.3,41.1,30.37,North,0,0.7,2.2,85,0.01,,,0.01,pywws,2013-02-13 11:26:00,
2013-02-13 03:31:00,45.1,40.9,30.38,SE,135,2.2,3.1,85,0.01,,,0.01,pywws,2013-02-13 11:31:00,
2013-02-13 03:37:00,45.0,40.7,30.38,NW,315,1.6,3.8,85,0.01,,,0.01,pywws,2013-02-13 11:37:00,
2013-02-13 03:42:00,44.8,40.6,30.38,South,180,1.6,3.8,85,0.01,,,0.01,pywws,2013-02-13 11:42:00,
2013-02-13 03:48:00,44.8,40.6,30.38,South,180,0.7,1.6,85,0.02,,,0.02,pywws,2013-02-13 11:48:00,
2013-02-13 03:54:00,44.6,40.7,30.38,South,180,2.2,3.8,86,0.02,,,0.02,pywws,2013-02-13 11:54:00,
2013-02-13 03:59:00,44.6,40.7,30.38,South,180,0.7,1.6,86,0.02,,,0.02,pywws,2013-02-13 11:59:00,
2013-02-13 04:05:00,44.6,40.7,30.38,South,180,0.7,1.6,86,0.02,,,0.02,pywws,2013-02-13 12:05:00,
2013-02-13 04:10:00,44.2,40.6,30.39,East,90,2.2,3.1,87,0.02,,,0.02,pywws,2013-02-13 12:10:00,
2013-02-13 04:16:00,44.1,40.4,30.39,SE,135,1.6,2.2,87,0.02,,,0.02,pywws,2013-02-13 12:16:00,
2013-02-13 04:22:00,43.9,40.3,30.39,South,180,1.6,3.8,87,0.01,,,0.02,pywws,2013-02-13 12:22:00,
2013-02-13 04:27:00,43.9,40.3,30.39,South,180,1.6,4.5,87,0.01,,,0.02,pywws,2013-02-13 12:27:00,
2013-02-13 04:33:00,43.9,40.3,30.39,East,90,1.6,2.2,87,0.01,,,0.02,pywws,2013-02-13 12:33:00,
2013-02-13 04:38:00,43.9,40.3,30.40,East,90,1.6,3.8,87,0.01,,,0.02,pywws,2013-02-13 12:38:00,
2013-02-13 04:44:00,44.2,40.3,30.39,South,180,0.7,2.2,86,0.01,,,0.02,pywws,2013-02-13 12:44:00,
2013-02-13 04:50:00,43.9,40.0,30.40,SE,135,0.7,2.2,86,0.00,,,0.02,pywws,2013-02-13 12:50:00,
2013-02-13 04:55:00,43.7,39.8,30.40,South,180,0.7,1.6,86,0.00,,,0.02,pywws,2013-02-13 12:55:00,
2013-02-13 05:01:00,43.9,39.7,30.40,South,180,2.2,3.8,85,0.00,,,0.02,pywws,2013-02-13 13:01:00,
2013-02-13 05:06:00,43.5,39.3,30.40,South,180,2.2,3.8,85,0.00,,,0.02,pywws,2013-02-13 13:06:00,
2013-02-13 05:12:00,43.9,39.7,30.40,South,180,1.6,3.1,85,0.00,,,0.02,pywws,2013-02-13 13:12:00,
2013-02-13 05:18:00,43.5,39.3,30.40,South,180,0.7,2.2,85,0.00,,,0.02,pywws,2013-02-13 13:18:00,
2013-02-13 05:23:00,43.3,39.1,30.40,East,90,1.6,2.2,85,0.00,,,0.02,pywws,2013-02-13 13:23:00,
2013-02-13 05:29:00,43.3,39.1,30.40,South,180,0.7,2.2,85,0.00,,,0.02,pywws,2013-02-13 13:29:00,
2013-02-13 05:34:00,43.3,39.1,30.40,North,-999,0.0,0.0,85,0.00,,,0.02,pywws,2013-02-13 13:34:00,
2013-02-13 05:40:00,43.2,39.0,30.39,North,-999,0.0,0.0,85,0.00,,,0.02,pywws,2013-02-13 13:40:00,
2013-02-13 05:46:00,43.2,38.7,30.40,South,180,0.7,1.6,84,0.00,,,0.02,pywws,2013-02-13 13:46:00,
2013-02-13 05:51:00,42.8,38.6,30.40,North,-999,0.0,0.0,85,0.00,,,0.02,pywws,2013-02-13 13:51:00,
2013-02-13 05:57:00,42.4,38.6,30.40,SW,225,1.6,3.1,86,0.00,,,0.02,pywws,2013-02-13 13:57:00,
2013-02-13 06:02:00,42.3,38.4,30.40,South,180,1.6,2.2,86,0.00,,,0.02,pywws,2013-02-13 14:02:00,
2013-02-13 06:08:00,42.3,38.4,30.40,South,180,1.6,2.2,86,0.00,,,0.02,pywws,2013-02-13 14:08:00,
2013-02-13 06:14:00,42.3,38.4,30.40,East,90,0.7,2.2,86,0.00,,,0.02,pywws,2013-02-13 14:14:00,
2013-02-13 06:19:00,42.1,38.2,30.40,SE,135,2.2,3.1,86,0.00,,,0.02,pywws,2013-02-13 14:19:00,
2013-02-13 06:25:00,42.1,38.2,30.40,East,90,1.6,3.1,86,0.00,,,0.02,pywws,2013-02-13 14:25:00,
2013-02-13 06:30:00,42.8,38.6,30.40,South,180,2.2,3.8,85,0.00,,,0.02,pywws,2013-02-13 14:30:00,
2013-02-13 06:36:00,43.2,38.4,30.40,South,180,0.7,2.2,83,0.00,,,0.02,pywws,2013-02-13 14:36:00,
2013-02-13 06:42:00,42.8,38.0,30.41,South,180,0.7,1.6,83,0.00,,,0.02,pywws,2013-02-13 14:42:00,
2013-02-13 06:47:00,42.6,38.1,30.41,North,0,2.2,4.5,84,0.00,,,0.02,pywws,2013-02-13 14:47:00,
2013-02-13 06:53:00,42.8,38.0,30.41,North,0,1.6,3.1,83,0.00,,,0.02,pywws,2013-02-13 14:53:00,
2013-02-13 06:58:00,43.3,37.9,30.41,East,90,0.7,2.2,81,0.00,,,0.02,pywws,2013-02-13 14:58:00,
2013-02-13 07:04:00,42.6,37.8,30.41,East,90,0.7,2.2,83,0.00,,,0.02,pywws,2013-02-13 15:04:00,
2013-02-13 07:10:00,42.8,37.7,30.41,East,90,1.6,3.1,82,0.00,,,0.02,pywws,2013-02-13 15:10:00,
2013-02-13 07:15:00,42.8,37.7,30.41,South,180,1.6,2.2,82,0.00,,,0.02,pywws,2013-02-13 15:15:00,
2013-02-13 07:21:00,42.3,37.8,30.42,West,270,0.7,3.8,84,0.00,,,0.02,pywws,2013-02-13 15:21:00,
2013-02-13 07:26:00,43.3,38.2,30.42,West,270,2.2,4.5,82,0.00,,,0.02,pywws,2013-02-13 15:26:00,
2013-02-13 07:32:00,43.0,37.9,30.42,South,180,0.7,1.6,82,0.00,,,0.02,pywws,2013-02-13 15:32:00,
2013-02-13 07:38:00,43.0,37.6,30.42,North,-999,0.0,0.7,81,0.00,,,0.02,pywws,2013-02-13 15:38:00,
2013-02-13 07:43:00,43.3,37.6,30.42,North,0,1.6,3.1,80,0.00,,,0.02,pywws,2013-02-13 15:43:00,
2013-02-13 07:49:00,42.8,37.7,30.42,North,0,1.6,3.1,82,0.00,,,0.02,pywws,2013-02-13 15:49:00,
2013-02-13 07:54:00,42.8,37.7,30.43,South,180,1.6,2.2,82,0.00,,,0.02,pywws,2013-02-13 15:54:00,
2013-02-13 08:00:00,42.8,37.7,30.43,South,180,0.7,1.6,82,0.00,,,0.02,pywws,2013-02-13 16:00:00,
2013-02-13 08:06:00,42.8,37.7,30.43,South,180,0.7,1.6,82,0.00,,,0.02,pywws,2013-02-13 16:06:00,
2013-02-13 08:11:00,43.5,37.8,30.43,South,180,2.2,6.0,80,0.00,,,0.02,pywws,2013-02-13 16:11:00,
2013-02-13 08:17:00,43.5,37.4,30.43,West,270,1.6,3.1,79,0.00,,,0.02,pywws,2013-02-13 16:17:00,
2013-02-13 08:22:00,43.3,37.3,30.43,NW,315,0.7,2.2,79,0.00,,,0.02,pywws,2013-02-13 16:22:00,
2013-02-13 08:28:00,43.5,37.4,30.43,East,90,1.6,3.1,79,0.00,,,0.02,pywws,2013-02-13 16:28:00,
2013-02-13 08:34:00,43.2,37.4,30.44,South,180,2.2,4.5,80,0.00,,,0.02,pywws,2013-02-13 16:34:00,
2013-02-13 08:39:00,43.7,37.6,30.44,North,0,0.7,2.2,79,0.00,,,0.02,pywws,2013-02-13 16:39:00,
2013-02-13 08:45:00,43.3,37.9,30.44,West,270,0.7,1.6,81,0.00,,,0.02,pywws,2013-02-13 16:45:00,
2013-02-13 08:50:00,43.5,37.8,30.45,North,-999,0.0,0.0,80,0.00,,,0.02,pywws,2013-02-13 16:50:00,
2013-02-13 08:56:00,43.7,37.6,30.44,North,-999,0.0,0.0,79,0.00,,,0.02,pywws,2013-02-13 16:56:00,
2013-02-13 09:02:00,43.7,37.9,30.45,NW,315,1.6,3.1,80,0.00,,,0.02,pywws,2013-02-13 17:02:00,
2013-02-13 09:07:00,43.9,38.1,30.45,South,180,0.7,1.6,80,0.00,,,0.02,pywws,2013-02-13 17:07:00,
2013-02-13 09:13:00,43.9,38.4,30.45,North,-999,0.0,1.6,81,0.00,,,0.02,pywws,2013-02-13 17:13:00,
2013-02-13 09:18:00,44.1,38.0,30.45,North,0,0.7,2.2,79,0.00,,,0.02,pywws,2013-02-13 17:18:00,
2013-02-13 09:24:00,44.2,37.8,30.45,East,90,0.7,1.6,78,0.00,,,0.02,pywws,2013-02-13 17:24:00,
2013-02-13 09:30:00,44.2,37.8,30.46,West,270,2.2,4.5,78,0.00,,,0.02,pywws,2013-02-13 17:30:00,
2013-02-13 09:35:00,44.2,37.8,30.46,North,0,0.7,1.6,78,0.00,,,0.02,pywws,2013-02-13 17:35:00,
2013-02-13 09:41:00,44.4,38.0,30.46,North,-999,0.0,0.0,78,0.00,,,0.02,pywws,2013-02-13 17:41:00,
2013-02-13 09:46:00,44.6,37.8,30.46,West,270,0.7,1.6,77,0.00,,,0.02,pywws,2013-02-13 17:46:00,
2013-02-13 09:52:00,44.6,38.2,30.45,North,-999,0.0,0.7,78,0.00,,,0.02,pywws,2013-02-13 17:52:00,
2013-02-13 09:58:00,44.8,38.0,30.46,West,270,0.7,2.2,77,0.00,,,0.02,pywws,2013-02-13 17:58:00,
2013-02-13 10:03:00,45.0,38.2,30.46,NW,315,0.7,1.6,77,0.00,,,0.02,pywws,2013-02-13 18:03:00,
2013-02-13 10:09:00,44.8,37.7,30.46,North,0,1.6,2.2,76,0.00,,,0.02,pywws,2013-02-13 18:09:00,
2013-02-13 10:14:00,45.0,38.2,30.46,North,-999,0.0,0.7,77,0.00,,,0.02,pywws,2013-02-13 18:14:00,
2013-02-13 10:20:00,45.0,38.2,30.46,South,180,0.7,1.6,77,0.00,,,0.02,pywws,2013-02-13 18:20:00,
2013-02-13 10:26:00,45.0,37.9,30.46,North,-999,0.0,1.6,76,0.00,,,0.02,pywws,2013-02-13 18:26:00,
2013-02-13 10:31:00,45.0,37.9,30.46,North,-999,0.0,0.7,76,0.00,,,0.02,pywws,2013-02-13 18:31:00,
2013-02-13 10:37:00,45.0,37.5,30.46,North,-999,0.0,0.0,75,0.00,,,0.02,pywws,2013-02-13 18:37:00,
2013-02-13 10:42:00,45.0,37.9,30.46,North,-999,0.0,1.6,76,0.00,,,0.02,pywws,2013-02-13 18:42:00,
2013-02-13 10:48:00,45.0,37.9,30.46,West,270,0.7,2.2,76,0.00,,,0.02,pywws,2013-02-13 18:48:00,
2013-02-13 10:54:00,44.8,37.7,30.46,North,-999,0.0,0.0,76,0.00,,,0.02,pywws,2013-02-13 18:54:00,
2013-02-13 10:59:00,44.6,37.5,30.47,North,-999,0.0,0.7,76,0.00,,,0.02,pywws,2013-02-13 18:59:00,
2013-02-13 11:05:00,44.8,37.3,30.46,North,-999,0.0,0.0,75,0.00,,,0.02,pywws,2013-02-13 19:05:00,
2013-02-13 11:10:00,44.8,37.7,30.46,North,0,1.6,3.1,76,0.00,,,0.02,pywws,2013-02-13 19:10:00,
2013-02-13 11:16:00,44.8,37.7,30.47,South,180,0.7,1.6,76,0.00,,,0.02,pywws,2013-02-13 19:16:00,
2013-02-13 11:22:00,45.0,37.9,30.47,North,-999,0.0,0.0,76,0.00,,,0.02,pywws,2013-02-13 19:22:00,
2013-02-13 11:27:00,45.1,37.7,30.46,North,-999,0.0,0.0,75,0.00,,,0.02,pywws,2013-02-13 19:27:00,
2013-02-13 11:33:00,45.1,37.7,30.46,North,-999,0.0,0.0,75,0.00,,,0.02,pywws,2013-02-13 19:33:00,
2013-02-13 11:38:00,45.1,37.7,30.46,North,-999,0.0,0.0,75,0.00,,,0.02,pywws,2013-02-13 19:38:00,
2013-02-13 11:44:00,45.1,37.7,30.46,North,-999,0.0,0.0,75,0.00,,,0.02,pywws,2013-02-13 19:44:00,
2013-02-13 11:50:00,45.3,38.2,30.46,North,-999,0.0,0.0,76,0.00,,,0.02,pywws,2013-02-13 19:50:00,
2013-02-13 11:55:00,45.5,38.0,30.46,South,180,0.7,1.6,75,0.00,,,0.02,pywws,2013-02-13 19:55:00,
2013-02-13 12:01:00,45.5,38.4,30.46,North,-999,0.0,0.0,76,0.00,,,0.02,pywws,2013-02-13 20:01:00,
2013-02-13 12:06:00,45.5,38.4,30.46,North,-999,0.0,0.0,76,0.00,,,0.02,pywws,2013-02-13 20:06:00,
2013-02-13 12:12:00,45.5,38.4,30.46,North,-999,0.0,0.7,76,0.00,,,0.02,pywws,2013-02-13 20:12:00,
2013-02-13 12:18:00,45.5,38.0,30.46,North,-999,0.0,1.6,75,0.00,,,0.02,pywws,2013-02-13 20:18:00,
2013-02-13 12:23:00,45.7,38.2,30.46,North,-999,0.0,0.0,75,0.00,,,0.02,pywws,2013-02-13 20:23:00,
2013-02-13 12:29:00,45.7,38.2,30.46,North,-999,0.0,0.7,75,0.00,,,0.02,pywws,2013-02-13 20:29:00,
2013-02-13 12:35:00,45.7,38.2,30.46,North,-999,0.0,0.0,75,0.00,,,0.02,pywws,2013-02-13 20:35:00,
2013-02-13 12:40:00,45.5,38.4,30.45,North,-999,0.0,0.0,76,0.00,,,0.02,pywws,2013-02-13 20:40:00,
2013-02-13 12:46:00,45.5,38.0,30.45,North,-999,0.0,0.0,75,0.00,,,0.02,pywws,2013-02-13 20:46:00,
2013-02-13 12:51:00,45.5,38.4,30.45,North,-999,0.0,0.0,76,0.00,,,0.02,pywws,2013-02-13 20:51:00,
2013-02-13 12:57:00,45.3,38.2,30.45,North,-999,0.0,0.0,76,0.00,,,0.02,pywws,2013-02-13 20:57:00,
2013-02-13 13:02:00,45.3,37.9,30.45,North,-999,0.0,0.7,75,0.00,,,0.02,pywws,2013-02-13 21:02:00,
2013-02-13 13:08:00,45.3,38.5,30.45,North,-999,0.0,0.0,77,0.00,,,0.02,pywws,2013-02-13 21:08:00,
2013-02-13 13:14:00,45.5,38.7,30.46,North,-999,0.0,0.0,77,0.00,,,0.02,pywws,2013-02-13 21:14:00,
2013-02-13 13:19:00,45.5,38.4,30.45,North,-999,0.0,0.0,76,0.00,,,0.02,pywws,2013-02-13 21:19:00,
2013-02-13 13:25:00,45.1,38.7,30.45,North,-999,0.0,0.0,78,0.00,,,0.02,pywws,2013-02-13 21:25:00,
2013-02-13 13:30:00,44.8,38.3,30.45,North,-999,0.0,0.0,78,0.00,,,0.02,pywws,2013-02-13 21:30:00,
2013-02-13 13:36:00,44.4,39.0,30.45,North,-999,0.0,0.0,81,0.00,,,0.02,pywws,2013-02-13 21:36:00,
2013-02-13 13:42:00,44.2,39.1,30.45,North,-999,0.0,0.0,82,0.00,,,0.02,pywws,2013-02-13 21:42:00,
2013-02-13 13:47:00,44.2,39.1,30.45,East,90,0.7,1.6,82,0.00,,,0.02,pywws,2013-02-13 21:47:00,
2013-02-13 13:53:00,44.4,39.3,30.45,East,90,0.7,1.6,82,0.00,,,0.02,pywws,2013-02-13 21:53:00,
2013-02-13 13:58:00,44.8,39.3,30.45,North,-999,0.0,0.0,81,0.00,,,0.02,pywws,2013-02-13 21:58:00,
2013-02-13 14:04:00,45.1,39.7,30.45,North,-999,0.0,0.0,81,0.00,,,0.02,pywws,2013-02-13 22:04:00,
2013-02-13 14:10:00,45.3,39.5,30.46,North,-999,0.0,1.6,80,0.00,,,0.02,pywws,2013-02-13 22:10:00,
2013-02-13 14:15:00,45.3,39.2,30.46,South,180,0.7,1.6,79,0.00,,,0.02,pywws,2013-02-13 22:15:00,
2013-02-13 14:21:00,45.3,39.5,30.45,North,-999,0.0,0.0,80,0.00,,,0.02,pywws,2013-02-13 22:21:00,
2013-02-13 14:26:00,45.1,39.7,30.45,North,-999,0.0,0.0,81,0.00,,,0.02,pywws,2013-02-13 22:26:00,
2013-02-13 14:32:00,45.5,40.0,30.45,North,-999,0.0,0.0,81,0.00,,,0.02,pywws,2013-02-13 22:32:00,
2013-02-13 14:38:00,45.9,40.4,30.45,North,-999,0.0,0.0,81,0.00,,,0.02,pywws,2013-02-13 22:38:00,
2013-02-13 14:43:00,46.0,40.2,30.45,North,-999,0.0,0.0,80,0.00,,,0.02,pywws,2013-02-13 22:43:00,
2013-02-13 14:49:00,46.4,39.3,30.45,North,-999,0.0,0.0,76,0.00,,,0.02,pywws,2013-02-13 22:49:00,
2013-02-13 14:54:00,46.4,39.3,30.45,North,-999,0.0,0.0,76,0.00,,,0.02,pywws,2013-02-13 22:54:00,
2013-02-13 15:00:00,46.8,39.3,30.45,North,-999,0.0,0.7,75,0.00,,,0.02,pywws,2013-02-13 23:00:00,
2013-02-13 15:06:00,46.8,39.6,30.46,South,180,0.7,2.2,76,0.00,,,0.02,pywws,2013-02-13 23:06:00,
2013-02-13 15:11:00,46.9,39.8,30.45,North,-999,0.0,0.0,76,0.00,,,0.02,pywws,2013-02-13 23:11:00,
2013-02-13 15:17:00,46.9,39.8,30.46,North,-999,0.0,0.0,76,0.00,,,0.02,pywws,2013-02-13 23:17:00,
2013-02-13 15:22:00,46.6,39.1,30.45,North,-999,0.0,0.7,75,0.00,,,0.02,pywws,2013-02-13 23:22:00,
2013-02-13 15:28:00,46.6,39.4,30.45,North,-999,0.0,0.0,76,0.00,,,0.02,pywws,2013-02-13 23:28:00,
2013-02-13 15:34:00,46.8,39.6,30.45,South,180,1.6,3.1,76,0.00,,,0.02,pywws,2013-02-13 23:34:00,
2013-02-13 15:39:00,46.6,39.1,30.45,North,0,0.7,1.6,75,0.00,,,0.02,pywws,2013-02-13 23:39:00,
2013-02-13 15:45:00,46.8,39.3,30.45,East,90,0.7,1.6,75,0.00,,,0.02,pywws,2013-02-13 23:45:00,
2013-02-13 15:50:00,46.6,39.1,30.46,North,-999,0.0,0.7,75,0.00,,,0.02,pywws,2013-02-13 23:50:00,
2013-02-13 15:56:00,46.6,39.1,30.45,North,-999,0.0,0.0,75,0.00,,,0.02,pywws,2013-02-13 23:56:00,
2013-02-13 16:02:00,46.6,38.7,30.45,North,-999,0.0,0.0,74,0.00,,,0.02,pywws,2013-02-14 00:02:00,
2013-02-13 16:07:00,46.4,39.3,30.46,North,-999,0.0,0.0,76,0.00,,,0.02,pywws,2013-02-14 00:07:00,
2013-02-13 16:13:00,46.2,38.7,30.46,North,-999,0.0,0.0,75,0.00,,,0.02,pywws,2013-02-14 00:13:00,
2013-02-13 16:18:00,45.9,38.4,30.46,North,-999,0.0,0.0,75,0.00,,,0.02,pywws,2013-02-14 00:18:00,
2013-02-13 16:24:00,45.7,38.9,30.45,North,-999,0.0,0.7,77,0.00,,,0.02,pywws,2013-02-14 00:24:00,
2013-02-13 16:30:00,45.7,39.5,30.45,North,-999,0.0,0.0,79,0.00,,,0.02,pywws,2013-02-14 00:30:00,
2013-02-13 16:35:00,45.5,39.7,30.45,North,-999,0.0,0.0,80,0.00,,,0.02,pywws,2013-02-14 00:35:00,
2013-02-13 16:41:00,45.3,39.5,30.46,North,-999,0.0,0.0,80,0.00,,,0.02,pywws,2013-02-14 00:41:00,
2013-02-13 16:46:00,45.3,39.8,30.46,North,-999,0.0,0.0,81,0.00,,,0.02,pywws,2013-02-14 00:46:00,
2013-02-13 16:52:00,45.1,39.3,30.46,North,-999,0.0,0.0,80,0.00,,,0.02,pywws,2013-02-14 00:52:00,
2013-02-13 16:58:00,45.0,39.5,30.46,North,-999,0.0,0.0,81,0.00,,,0.02,pywws,2013-02-14 00:58:00,
2013-02-13 17:03:00,44.8,39.3,30.46,North,-999,0.0,0.0,81,0.00,,,0.02,pywws,2013-02-14 01:03:00,
2013-02-13 17:09:00,44.8,39.3,30.47,North,-999,0.0,0.0,81,0.00,,,0.02,pywws,2013-02-14 01:09:00,
2013-02-13 17:14:00,44.6,39.1,30.46,North,-999,0.0,0.0,81,0.00,,,0.02,pywws,2013-02-14 01:14:00,
2013-02-13 17:20:00,44.6,39.1,30.46,North,-999,0.0,0.0,81,0.00,,,0.02,pywws,2013-02-14 01:20:00,
2013-02-13 17:26:00,44.4,39.3,30.47,North,-999,0.0,0.0,82,0.00,,,0.02,pywws,2013-02-14 01:26:00,
2013-02-13 17:31:00,44.2,39.4,30.47,North,-999,0.0,0.0,83,0.00,,,0.02,pywws,2013-02-14 01:31:00,
2013-02-13 17:37:00,44.1,39.2,30.47,North,-999,0.0,0.0,83,0.00,,,0.02,pywws,2013-02-14 01:37:00,
2013-02-13 17:42:00,43.9,39.1,30.47,North,-999,0.0,0.0,83,0.00,,,0.02,pywws,2013-02-14 01:42:00,
2013-02-13 17:48:00,43.9,39.1,30.47,North,-999,0.0,0.0,83,0.00,,,0.02,pywws,2013-02-14 01:48:00,
2013-02-13 17:54:00,43.7,38.9,30.47,North,-999,0.0,0.0,83,0.00,,,0.02,pywws,2013-02-14 01:54:00,
2013-02-13 17:59:00,43.7,38.9,30.47,North,-999,0.0,0.0,83,0.00,,,0.02,pywws,2013-02-14 01:59:00,
2013-02-13 18:05:00,43.7,38.9,30.47,North,-999,0.0,0.0,83,0.00,,,0.02,pywws,2013-02-14 02:05:00,
2013-02-13 18:11:00,43.5,39.0,30.47,North,-999,0.0,0.0,84,0.00,,,0.02,pywws,2013-02-14 02:11:00,
2013-02-13 18:16:00,43.3,38.8,30.47,North,-999,0.0,0.0,84,0.00,,,0.02,pywws,2013-02-14 02:16:00,
2013-02-13 18:22:00,43.3,38.8,30.47,North,-999,0.0,0.0,84,0.00,,,0.02,pywws,2013-02-14 02:22:00,
2013-02-13 18:27:00,43.3,38.8,30.46,North,-999,0.0,0.0,84,0.00,,,0.02,pywws,2013-02-14 02:27:00,
2013-02-13 18:33:00,43.3,38.8,30.46,North,-999,0.0,0.0,84,0.00,,,0.02,pywws,2013-02-14 02:33:00,
2013-02-13 18:38:00,43.3,38.8,30.46,North,-999,0.0,0.0,84,0.00,,,0.02,pywws,2013-02-14 02:38:00,
2013-02-13 18:44:00,43.2,38.7,30.46,North,-999,0.0,0.0,84,0.00,,,0.02,pywws,2013-02-14 02:44:00,
2013-02-13 18:50:00,43.2,38.7,30.47,North,-999,0.0,0.0,84,0.00,,,0.02,pywws,2013-02-14 02:50:00,
2013-02-13 18:55:00,43.0,38.8,30.47,North,-999,0.0,0.0,85,0.00,,,0.02,pywws,2013-02-14 02:55:00,
2013-02-13 19:01:00,43.3,38.8,30.47,North,-999,0.0,0.0,84,0.00,,,0.02,pywws,2013-02-14 03:01:00,
2013-02-13 19:07:00,43.2,38.7,30.48,North,-999,0.0,0.0,84,0.00,,,0.02,pywws,2013-02-14 03:07:00,
2013-02-13 19:12:00,43.3,38.8,30.48,North,-999,0.0,0.0,84,0.00,,,0.02,pywws,2013-02-14 03:12:00,
2013-02-13 19:18:00,43.3,38.8,30.48,North,-999,0.0,0.0,84,0.00,,,0.02,pywws,2013-02-14 03:18:00,
2013-02-13 19:23:00,43.3,38.8,30.48,North,-999,0.0,0.0,84,0.00,,,0.02,pywws,2013-02-14 03:23:00,
2013-02-13 19:29:00,43.2,39.0,30.48,North,-999,0.0,0.0,85,0.00,,,0.02,pywws,2013-02-14 03:29:00,
2013-02-13 19:35:00,43.2,39.0,30.48,North,-999,0.0,0.0,85,0.00,,,0.02,pywws,2013-02-14 03:35:00,
2013-02-13 19:40:00,43.0,38.8,30.48,North,-999,0.0,0.0,85,0.00,,,0.02,pywws,2013-02-14 03:40:00,
2013-02-13 19:46:00,42.8,38.6,30.48,North,-999,0.0,0.0,85,0.00,,,0.02,pywws,2013-02-14 03:46:00,
2013-02-13 19:51:00,42.8,38.9,30.49,North,-999,0.0,0.0,86,0.01,,,0.04,pywws,2013-02-14 03:51:00,
2013-02-13 19:57:00,42.8,38.9,30.49,North,-999,0.0,0.0,86,0.01,,,0.04,pywws,2013-02-14 03:57:00,
2013-02-13 20:03:00,42.8,38.9,30.49,North,-999,0.0,0.0,86,0.01,,,0.04,pywws,2013-02-14 04:03:00,
2013-02-13 20:08:00,42.6,39.3,30.49,North,-999,0.0,0.0,88,0.01,,,0.04,pywws,2013-02-14 04:08:00,
2013-02-13 20:14:00,42.8,39.2,30.49,North,-999,0.0,0.0,87,0.01,,,0.04,pywws,2013-02-14 04:14:00,
2013-02-13 20:19:00,42.6,39.3,30.49,North,-999,0.0,0.0,88,0.01,,,0.04,pywws,2013-02-14 04:19:00,
2013-02-13 20:25:00,42.6,39.3,30.49,North,-999,0.0,0.0,88,0.01,,,0.04,pywws,2013-02-14 04:25:00,
2013-02-13 20:31:00,42.6,39.3,30.49,North,-999,0.0,0.0,88,0.01,,,0.04,pywws,2013-02-14 04:31:00,
2013-02-13 20:36:00,42.8,39.5,30.49,North,-999,0.0,0.0,88,0.01,,,0.04,pywws,2013-02-14 04:36:00,
2013-02-13 20:42:00,42.6,39.6,30.49,North,-999,0.0,0.0,89,0.01,,,0.04,pywws,2013-02-14 04:42:00,
2013-02-13 20:47:00,42.6,39.6,30.49,North,-999,0.0,0.0,89,0.01,,,0.04,pywws,2013-02-14 04:47:00,
2013-02-13 20:53:00,42.6,39.6,30.49,North,-999,0.0,0.0,89,0.00,,,0.04,pywws,2013-02-14 04:53:00,
2013-02-13 20:58:00,42.6,39.6,30.49,North,-999,0.0,0.0,89,0.00,,,0.04,pywws,2013-02-14 04:58:00,
2013-02-13 21:00:00,42.6,39.6,30.50,North,-999,0.0,0.0,89,0.00,,,0.04,pywws,2013-02-14 05:00:00,
2013-02-13 21:02:00,42.6,39.6,30.49,North,-999,0.0,0.0,89,0.00,,,0.04,pywws,2013-02-14 05:02:00,
2013-02-13 21:04:00,42.6,39.6,30.49,North,-999,0.0,0.0,89,0.00,,,0.04,pywws,2013-02-14 05:04:00,
2013-02-13 21:10:00,42.6,39.9,30.50,North,-999,0.0,0.0,90,0.00,,,0.04,pywws,2013-02-14 05:10:00,
2013-02-13 21:15:00,42.6,39.9,30.50,North,-999,0.0,0.0,90,0.00,,,0.04,pywws,2013-02-14 05:15:00,
2013-02-13 21:17:00,42.6,39.9,30.50,North,-999,0.0,0.0,90,0.00,,,0.04,pywws,2013-02-14 05:17:00,
2013-02-13 21:22:00,42.8,39.8,30.49,North,-999,0.0,0.0,89,0.00,,,0.04,pywws,2013-02-14 05:22:00,
2013-02-13 21:28:00,42.8,39.8,30.49,North,-999,0.0,0.0,89,0.00,,,0.04,pywws,2013-02-14 05:28:00,
2013-02-13 21:34:00,42.6,39.9,30.49,North,-999,0.0,0.0,90,0.00,,,0.04,pywws,2013-02-14 05:34:00,
2013-02-13 21:39:00,42.6,39.9,30.49,North,-999,0.0,0.0,90,0.00,,,0.04,pywws,2013-02-14 05:39:00,
2013-02-13 21:45:00,42.8,39.8,30.49,North,-999,0.0,0.0,89,0.00,,,0.04,pywws,2013-02-14 05:45:00,
2013-02-13 21:51:00,42.8,39.8,30.50,North,-999,0.0,0.0,89,0.00,,,0.04,pywws,2013-02-14 05:51:00,
2013-02-13 21:56:00,42.8,39.8,30.50,North,-999,0.0,0.0,89,0.00,,,0.04,pywws,2013-02-14 05:56:00,
2013-02-13 22:02:00,42.8,39.8,30.50,East,90,1.6,2.2,89,0.00,,,0.04,pywws,2013-02-14 06:02:00,
2013-02-13 22:07:00,43.0,39.7,30.50,North,-999,0.0,0.0,88,0.00,,,0.04,pywws,2013-02-14 06:07:00,
2013-02-13 22:13:00,43.0,39.7,30.50,North,-999,0.0,0.0,88,0.00,,,0.04,pywws,2013-02-14 06:13:00,
2013-02-13 22:18:00,43.0,39.7,30.51,North,-999,0.0,0.0,88,0.00,,,0.04,pywws,2013-02-14 06:18:00,
2013-02-13 22:24:00,43.0,39.7,30.51,North,-999,0.0,0.0,88,0.00,,,0.04,pywws,2013-02-14 06:24:00,
2013-02-13 22:30:00,43.0,39.7,30.51,North,-999,0.0,0.0,88,0.00,,,0.04,pywws,2013-02-14 06:30:00,
2013-02-13 22:35:00,43.0,39.7,30.51,North,-999,0.0,0.0,88,0.00,,,0.04,pywws,2013-02-14 06:35:00,
2013-02-13 22:41:00,43.0,39.7,30.51,North,-999,0.0,0.0,88,0.00,,,0.04,pywws,2013-02-14 06:41:00,
2013-02-13 22:47:00,43.0,39.7,30.51,North,-999,0.0,0.0,88,0.00,,,0.04,pywws,2013-02-14 06:47:00,
2013-02-13 22:52:00,43.0,39.7,30.51,North,-999,0.0,0.0,88,0.00,,,0.04,pywws,2013-02-14 06:52:00,
2013-02-13 22:58:00,43.0,39.7,30.51,North,-999,0.0,0.0,88,0.00,,,0.04,pywws,2013-02-14 06:58:00,
2013-02-13 23:03:00,43.0,39.7,30.51,North,-999,0.0,0.0,88,0.00,,,0.04,pywws,2013-02-14 07:03:00,
2013-02-13 23:09:00,43.0,39.7,30.52,North,-999,0.0,0.0,88,0.00,,,0.04,pywws,2013-02-14 07:09:00,
2013-02-13 23:14:00,43.0,39.7,30.52,North,-999,0.0,0.0,88,0.00,,,0.04,pywws,2013-02-14 07:14:00,
2013-02-13 23:20:00,43.2,39.6,30.52,North,-999,0.0,0.7,87,0.00,,,0.04,pywws,2013-02-14 07:20:00,
2013-02-13 23:26:00,43.2,39.6,30.52,South,180,0.7,2.2,87,0.00,,,0.04,pywws,2013-02-14 07:26:00,
2013-02-13 23:31:00,43.2,39.6,30.51,North,-999,0.0,0.0,87,0.00,,,0.04,pywws,2013-02-14 07:31:00,
2013-02-13 23:37:00,43.2,39.6,30.52,South,180,0.7,2.2,87,0.00,,,0.04,pywws,2013-02-14 07:37:00,
2013-02-13 23:42:00,43.0,39.4,30.52,South,180,1.6,2.2,87,0.00,,,0.04,pywws,2013-02-14 07:42:00,
2013-02-13 23:48:00,43.0,39.4,30.52,South,180,1.6,3.1,87,0.00,,,0.04,pywws,2013-02-14 07:48:00,
2013-02-13 23:54:00,43.0,39.1,30.52,North,-999,0.0,1.6,86,0.00,,,0.04,pywws,2013-02-14 07:54:00,
2013-02-13 23:59:00,43.0,39.1,30.53,South,180,0.7,1.6,86,0.00,,,0.04,pywws,2013-02-14 07:59:00,